Regional Weather Roundup
Issued by NWS

Home | Current Version | Previous Version | Graphics & Text | Print | Product List | Glossary On
Versions: 1 2 3 4 5 6 7 8 9 10 11 12 13 14 15 16 17 18 19 20 21 22 23 24 25 26 27 28 29 30 31 32 33 34 35 36 37 38 39 40 41 42 43 44 45 46 47 48 49 50
000
ASUS43 KMPX 200301
RWRMN
WEATHER ROUNDUP FOR MINNESOTA
NATIONAL WEATHER SERVICE TWIN CITIES/CHANHASSEN MN
1000 PM CDT SAT APR 19 2014


NOTE: "FAIR" INDICATES FEW OR NO CLOUDS BELOW 12,000 FEET WITH NO
SIGNIFICANT WEATHER AND/OR OBSTRUCTIONS TO VISIBILITY. N/A MEANS
CURRENT SKY AND/OR WEATHER CONDITIONS ARE NOT AVAILABLE.

MNZ060>063-068>070-200400-
   Twin Cities Metro

CITY           SKY/WX    TMP DP  RH WIND       PRES   REMARKS
TWIN CITIES    LGT RAIN  56  54  93 CALM      30.01R
ST PAUL        LGT RAIN  56  52  86 CALM      30.01R FOG
CRYSTAL        CLOUDY    54  46  74 S5        30.00R
BLAINE         MOCLDY    55  48  76 CALM      30.00S
EDEN PRAIRIE   LGT RAIN  56  52  86 N6        30.00R
LAKEVILLE      LGT RAIN  54  52  94 NW5       30.01R
SOUTH ST PAUL  CLOUDY    59  55  84 CALM      30.00S
LAKE ELMO      CLOUDY    57  52  82 SW3       30.02R
$$
MNZ001>005-007-008-013>017-022>024-027-028-200400-
   Northwest Minnesota

CITY           SKY/WX    TMP DP  RH WIND       PRES   REMARKS
BEMIDJI        CLEAR     46  37  71 NW9       29.96R
HALLOCK        CLOUDY    41  36  81 NW5       29.97R
ROSEAU         CLEAR     45  36  70 W8        29.95R
WARROAD        CLEAR     45  37  76 W8        29.94R
THIEF RVR FALL CLEAR     46  36  66 W8        29.98R
CROOKSTON      CLEAR     46  37  71 NW10      30.00R
FOSSTON        CLEAR     43  36  75 CALM      29.99R
DETROIT LAKES  CLEAR     52  34  50 NW12      29.99R
MOORHEAD       CLEAR     50  43  76 N9        29.99R
PARK RAPIDS    CLEAR     49  31  49 S7        29.96R
$$
MNZ006-009>011-018-025>026-200400-
   North Central Minnesota

CITY           SKY/WX    TMP DP  RH WIND       PRES   REMARKS
BAUDETTE       CLEAR     47  37  68 VRB5      29.93R
FLAG ISLAND    CLOUDY    43  34  70 W15       29.93R
INTL FALLS     CLEAR     48  35  60 W6        29.92R
WASKISH        FAIR      41  37  87 W6        29.96R
BIG FORK       CLEAR     46  28  49 CALM      29.95R
LONGVILLE      CLEAR     39  28  65 CALM      29.97S
GRAND RAPIDS   CLEAR     46  39  76 S7        29.97S
CRANE LAKE     CLEAR     39  36  87 S5        29.95S
ORR            CLEAR     45  37  76 CALM      29.93R
COOK           CLEAR     48  39  71 S6        29.96R
$$
MNZ012-019>021-037-200400-
   Northeast Minnesota

CITY           SKY/WX    TMP DP  RH WIND       PRES   REMARKS
DULUTH         CLEAR     33  29  85 SE6       30.00S WCI  28
ELY            CLEAR     43  36  75 S7        29.97S
HIBBING        CLEAR     46  37  71 S5        29.97R
EVELETH        CLEAR     37  34  87 CALM      30.00R
DULUTH HARBOR  CLEAR     32  30  93 CALM      30.04S
TWO HARBORS    CLEAR     30  25  80 CALM      30.00F
SILVER BAY     CLEAR     28  28 100 CALM      30.01S FOG
GRAND MARAIS     N/A     32  30  92 CALM      30.04S
G MARAIS ARPRT CLEAR     32  27  80 CALM      30.02S
$$
MNZ029>031-032-039>041-046>048-054>057-064-200400-
   West Central Minnesota

CITY           SKY/WX    TMP DP  RH WIND       PRES   REMARKS
FERGUS FALLS   CLEAR     52  30  43 S6        29.94S
WHEATON        CLEAR     57  34  41 S7        30.00R
MORRIS         CLEAR     48  32  53 SW5       29.98S
ALEXANDRIA     CLEAR     53  30  41 CALM      30.00R
ELBOW LAKE     FAIR      49  34  54 SE3       29.98S
WADENA         CLEAR     46  32  57 CALM      29.98R
GLENWOOD       PTCLDY    52  36  54 SW6       30.01R
APPLETON       PTCLDY    54  37  54 S6        29.99R
BENSON         PTCLDY    52  39  62 SW5       29.99S
ORTONVILLE     PTCLDY    57  28  33 CALM      29.99R
MADISON        MOCLDY    52  39  62 SW6       30.00R
WILLMAR        FAIR      48  43  81 SE6       30.02R
$$
MNZ033>034-036-042>043-049>051-058-059-200400-
   Central Minnesota

CITY           SKY/WX    TMP DP  RH WIND       PRES   REMARKS
ST CLOUD       PTCLDY    46  43  89 CALM      30.00R FOG
SAUK CENTRE    FAIR      49  37  63 W5        30.00R
PAYNESVILLE    MOCLDY    45  37  72 CALM      30.00S
AITKIN         CLEAR     48  39  71 S3        29.97S
PINE RIVER     CLEAR     45  34  65 CALM      30.01R
BRAINERD       CLEAR     48  29  47 CALM      29.99R
STAPLES        CLEAR     45  32  61 CALM      29.98S
LONG PRAIRIE   FAIR      50  37  62 CALM      30.00R
LITTLE FALLS   CLEAR     46  37  71 CALM      29.99S
LITCHFIELD       N/A     52  46  82 CALM      30.01S
BUFFALO        MOCLDY    49  44  81 CALM      30.01S
MAPLE LAKE     MOCLDY    47  45  95 CALM      30.02R
$$
MNZ037-044-045-052-053-200400-
   East Central Minnesota

CITY           SKY/WX    TMP DP  RH WIND       PRES   REMARKS
PRINCETON      FOG       45  43  93 CALM      30.01R VSB 3/4
MORA           CLEAR     36  34  93 CALM      30.02S FOG
CAMBRIDGE      PTCLDY    43  36  75 CALM      29.99S
RUSH CITY      PTCLDY    40  36  85 CALM      30.01S
HINCKLEY       FAIR      41  37  87 CALM      30.01R
CLOQUET        CLEAR     32  28  86 CALM      30.00F
MCGREGOR       CLEAR     46  39  76 S3        29.99S
$$
MNZ071>073-080-081-089-090-097-098-200400-
   Southwest Minnesota

CITY           SKY/WX    TMP DP  RH WIND       PRES   REMARKS
MONTEVIDEO     MOCLDY    54  41  62 CALM      30.01R
GRANITE FALLS  MOCLDY    49  42  76 SE6       30.02R
CANBY          MOCLDY    54  34  45 SW7       30.02R
MARSHALL       MOCLDY    52  36  54 SW7       30.01R
REDWOOD FALLS  CLOUDY    56  45  66 CALM      30.01R
OLIVIA         MOCLDY    52  45  76 CALM      30.00S
PIPESTONE      MOCLDY    55  32  41 CALM      30.02S
WINDOM         CLOUDY    55  45  67 CALM      30.02S
WORTHINGTON    CLOUDY    57  41  54 NE6       30.04R
JACKSON        CLOUDY    57  45  62 N6        30.02S
TRACY          CLOUDY    56  43  62 CALM      30.02R
SLAYTON        CLOUDY    55  41  59 CALM      30.04R
$$
MNZ065>067-074>077-082>085-091>093-200400-
   South Central Minnesota

CITY           SKY/WX    TMP DP  RH WIND       PRES   REMARKS
MANKATO        CLOUDY    55  52  88 NW8       30.02R
NEW ULM        CLOUDY    55  52  88 CALM      30.01S
ST JAMES       CLOUDY    57  48  72 CALM      30.03R
FAIRMONT       CLOUDY    57  48  72 N7        30.03R
GLENCOE        CLOUDY    55  46  69 NW3       30.00S
FARIBAULT      LGT RAIN  59  54  82 SE5       30.01S
OWATONNA       CLOUDY    57  52  82 N3        30.02R
WASECA         CLOUDY    59  54  82 E7        30.03S
ALBERT LEA     CLOUDY    66  43  42 S12       30.01S
$$
MNZ078>079-086>088-094>096-200400-
   Southeast Minnesota

CITY           SKY/WX    TMP DP  RH WIND       PRES   REMARKS
ROCHESTER      CLOUDY    62  45  53 S15       30.03S
RED WING       CLOUDY    54  52  94 CALM      30.01S
STANTON        LGT RAIN  55  53  91 SE3       29.99F
DODGE CENTER   CLOUDY    63  45  51 W7        30.03R
WINONA           N/A    N/A N/A N/A MISG        N/A
AUSTIN         CLOUDY    64  43  45 S9        30.03R
PRESTON        CLOUDY    63  45  52 S14       30.06S
$$
ABBREVIATIONS USED IN REMARKS
   TC - TEMPERATURES IN CELSIUS
  WCI - WIND CHILL INDEX
   HX - HEAT INDEX
  VSB - VISIBILITY
$$


USA.gov is the U.S. government's official web portal to all federal, state and local government web resources and services.